Probability
0 0 0 1 0 0 0 0 0 0 0 0 0 0 0 0 0 0 0 0 0 0 0 0 0 0 0 0 0 0 0 0 0 0 0 0 0 0 0 0 0 0 0
0 0 0 1 0 0 0 0 0 0 0 0 0 0 0 0 0 0 0 0 0 0 0 0 0 0 0 0 0 0 0 0 0 0 0 0 0 0 0 0 0 0 0
0 0 0 0 0 0 0 0 0 0 0 0 0 0 0 0 0 0 0 0 0 0 0 0 0 0 0 0 0 0 0 0 0 0 0 0 0 0 0 0 0 0 0
0 1 1 0 0 0 0 0 0 0 0 0 0 0 0 0 0 0 0 0 0 0 0 0 0 0 0 0 0 0 0 0 0 0 0 0 0 0 0 0 0 0 0
1 1 2 1 0 0 0 0 0 0 0 0 0 0 0 0 0 0 0 0 0 0 0 0 0 0 0 0 0 0 0 0 0 0 0 0 0 0 0 0 0 0 0
0 1 2 1 1 0 0 0 0 0 0 0 0 0 0 0 0 0 0 0 0 0 0 0 0 0 0 0 0 0 0 0 0 0 0 0 0 0 0 0 0 0 0
0 0 1 3 3 2 0 0 0 0 0 0 0 0 0 0 0 0 0 0 0 0 0 0 0 0 0 0 0 0 0 0 0 0 0 0 0 0 0 0 0 0 0
1 0 1 4 5 4 2 0 0 0 0 0 0 0 0 0 0 0 0 0 0 0 0 0 0 0 0 0 0 0 0 0 0 0 0 0 0 0 0 0 0 0 0
1 0 1 4 6 6 4 1 0 0 0 0 0 0 0 0 0 0 0 0 0 0 0 0 0 0 0 0 0 0 0 0 0 0 0 0 0 0 0 0 0 0 0
1 1 1 3 5 6 5 2 1 0 0 0 0 0 0 0 0 0 1 1 1 0 0 0 0 0 0 0 0 0 0 0 0 0 0 0 0 0 0 0 0 0 0
2 1 1 2 3 4 4 3 1 0 0 0 0 0 0 0 0 0 1 2 2 1 0 0 0 0 0 0 0 0 0 0 0 0 0 0 0 0 0 0 0 0 0
1 1 1 2 2 3 3 2 1 0 0 0 0 0 0 0 0 0 1 2 2 1 1 1 0 0 0 0 0 0 0 0 0 0 0 0 0 0 0 0 0 0 0
0 0 1 1 1 2 2 1 0 0 0 0 0 0 0 0 0 0 1 1 2 2 3 2 0 0 0 0 0 0 0 0 0 0 0 0 0 0 0 0 0 0 0
0 0 0 1 1 2 2 1 0 0 0 0 0 0 0 0 0 0 1 2 2 3 3 2 0 0 0 0 0 0 0 0 0 0 0 0 0 0 0 0 0 0 0
1 1 1 2 3 3 2 1 0 0 0 0 0 0 0 0 0 0 1 1 1 1 2 1 1 0 0 0 0 0 0 0 0 0 0 0 0 0 0 0 0 0 0
0 0 1 3 4 3 2 1 1 0 0 0 0 0 0 0 0 0 0 0 0 0 1 2 2 1 0 0 0 0 0 0 0 0 0 0 0 0 0 0 0 0 0
0 0 1 2 4 3 3 2 2 1 0 0 0 0 0 0 0 0 0 0 0 0 1 2 3 2 1 0 0 0 0 0 0 0 0 0 0 0 0 0 0 0 0
0 0 0 1 2 3 3 3 2 1 0 0 0 0 0 1 1 1 1 2 1 1 1 1 2 3 2 1 0 0 0 0 0 0 0 0 0 0 0 0 0 0 0
0 0 0 0 1 2 3 3 2 1 0 0 0 0 0 1 2 2 2 3 3 2 2 2 2 2 2 2 1 0 0 0 0 0 0 0 0 0 0 0 0 0 0
1 0 0 0 1 2 3 3 2 1 0 0 0 0 0 1 1 2 3 3 3 3 3 3 3 2 1 1 1 0 0 0 0 0 0 0 0 0 0 0 0 0 0
2 1 0 0 1 2 3 2 1 0 0 0 0 0 0 1 1 2 3 3 3 3 3 3 3 2 1 0 0 0 0 0 0 0 0 0 0 0 0 0 0 0 0
2 1 0 0 1 1 1 1 1 0 0 1 1 1 1 1 2 2 3 3 2 2 2 3 4 3 1 0 0 0 0 0 0 0 0 0 0 0 0 0 0 0 0
1 0 0 0 0 0 0 0 0 0 0 1 2 1 1 1 1 1 2 1 1 1 2 3 4 4 2 1 0 0 0 0 0 0 0 0 0 0 0 0 0 0 0
0 0 0 0 0 0 0 0 0 0 0 1 1 1 0 0 0 0 0 0 0 1 3 3 3 3 2 1 0 0 0 0 0 0 0 0 0 0 0 0 0 0 0
0 0 0 0 0 0 0 0 0 0 0 0 0 0 1 1 0 0 0 0 0 1 2 3 2 2 2 1 0 0 0 0 0 0 0 0 0 0 0 0 0 0 0
0 0 0 0 0 0 0 0 0 0 0 0 0 1 2 2 1 0 0 0 0 0 1 1 1 1 1 0 0 0 0 0 0 0 0 0 0 0 0 0 0 0 0
Wind_Speed
8 7 6 6 5 5 7 7 6 5 3 2 2 2 2 2 2 3 4 4 4 5 3 3 4 4 3 3 4 3 3 3 2 2 2 2 3 3 3 3 3 4 4
8 8 7 6 6 6 6 6 6 5 5 2 2 2 2 2 3 3 3 4 4 5 4 4 3 3 3 4 4 3 3 2 3 2 1 1 2 2 2 2 3 4 4
10 10 9 7 6 6 6 6 6 6 5 4 2 3 2 1 2 2 1 2 3 4 4 4 3 2 3 2 3 3 3 2 3 3 2 2 1 1 2 2 3 3 3
9 9 9 8 7 7 6 6 6 6 6 5 3 3 3 2 2 2 2 2 3 2 3 3 3 3 3 2 2 3 2 2 2 2 2 2 2 1 1 2 2 3 3
9 10 9 8 8 7 6 5 6 6 6 5 3 1 2 2 2 2 2 3 2 2 2 2 2 3 3 3 3 3 3 3 2 2 2 3 2 1 1 1 1 2 2
9 9 9 8 7 7 6 5 6 5 5 5 5 3 3 2 3 2 2 2 2 1 2 1 1 2 2 3 2 2 3 2 3 3 2 2 2 2 2 1 1 1 1
9 9 9 8 8 8 7 6 6 6 6 5 5 5 4 4 4 3 3 2 2 2 2 2 1 2 2 2 2 2 2 2 2 2 2 2 2 2 2 2 1 1 1
9 9 9 9 8 9 8 7 7 7 7 6 5 5 5 3 2 3 3 2 2 2 3 2 2 2 2 2 2 1 1 2 2 2 2 2 2 2 2 1 1 2 2
9 10 9 9 9 9 8 7 7 7 7 6 5 4 4 4 3 3 2 2 2 3 3 3 3 2 2 1 1 1 1 2 2 2 2 2 1 2 2 2 1 1 1
9 9 9 9 9 8 7 7 7 7 6 6 5 4 3 4 3 2 2 2 2 3 3 2 2 2 2 2 2 1 1 1 1 1 2 2 2 2 2 1 1 1 1
8 8 8 8 8 8 7 6 6 6 6 6 5 5 4 4 4 2 2 2 2 3 3 3 2 2 2 2 2 1 1 1 1 1 1 1 2 2 2 2 1 1 1
7 7 8 8 7 7 7 7 6 6 5 5 4 4 5 4 4 4 3 3 3 3 3 3 2 2 2 1 2 1 0 1 1 1 1 1 1 1 2 2 2 1 1
7 7 8 7 7 7 6 6 6 6 6 5 5 4 5 5 4 4 4 3 3 3 3 3 3 2 2 1 1 2 1 1 0 1 1 1 1 1 1 2 2 2 1
6 7 7 7 7 7 6 6 6 6 6 6 5 4 4 4 4 3 3 2 2 2 2 2 2 2 2 1 0 0 0 0 0 0 0 1 1 1 1 1 2 2 2
6 7 7 6 6 6 6 5 5 6 7 6 5 5 4 4 4 3 3 2 2 2 2 2 2 2 2 1 1 1 1 1 1 0 1 1 2 2 1 1 1 2 2
6 6 7 7 7 7 7 6 6 6 6 6 5 4 4 4 4 4 3 3 2 1 1 2 2 1 1 2 2 1 2 2 1 1 1 1 2 2 1 1 2 1 1
5 5 6 6 7 7 7 6 6 6 6 6 5 5 5 4 4 4 4 3 3 2 2 2 2 2 2 2 2 0 2 2 2 1 1 1 0 1 0 2 3 3 4
4 5 5 6 6 6 7 7 6 6 6 6 5 5 5 5 4 4 4 4 3 3 2 2 3 2 2 3 2 2 2 3 2 1 2 1 0 1 1 1 2 3 3
3 2 2 3 5 6 6 7 6 6 5 5 5 5 5 5 5 5 4 3 3 3 3 3 3 3 3 4 3 2 2 2 2 1 1 1 0 1 2 1 3 3 3
3 2 1 1 2 3 5 5 5 5 5 4 4 4 4 5 5 5 4 3 3 2 2 2 3 3 3 4 4 3 1 2 2 1 1 0 0 2 2 1 2 4 4
3 2 2 2 2 3 4 4 4 4 4 4 4 4 4 4 4 4 3 3 3 2 2 2 2 2 3 4 4 3 1 2 2 2 1 1 2 3 4 3 3 5 5
3 3 3 3 2 2 3 4 3 3 4 5 4 4 3 3 4 4 3 3 3 3 2 2 2 2 2 2 3 4 4 2 1 2 1 1 3 4 5 4 6 8 7
4 4 3 3 2 3 3 3 3 3 4 4 4 4 4 3 3 4 3 2 2 2 2 2 1 1 1 1 3 5 5 5 2 2 4 4 5 4 4 6 8 6 3
4 4 3 3 3 3 3 3 3 4 4 4 4 3 3 3 3 3 2 2 2 2 2 2 1 1 1 1 1 1 2 3 3 3 5 7 7 5 5 5 4 3 3
3 3 3 3 3 3 3 3 2 3 4 4 3 3 3 3 3 3 2 2 1 2 2 1 1 1 1 1 2 2 1 1 2 2 2 2 2 2 2 2 2 2 2
3 3 3 3 3 3 3 2 2 2 3 3 3 2 2 3 3 3 3 4 3 3 3 2 2 1 2 2 2 1 1 1 2 1 2 2 2 2 2 2 2 2 2
Wind_Direction
166 151 150 145 152 146 136 134 142 140 127 101 101 109 102 86 70 72 49 36 36 23 32 40 44 38 45 36 37 29 17 22 14 40 25 28 66 76 65 46 37 40 33
164 155 161 161 168 152 144 145 146 133 119 114 124 116 105 99 89 67 51 41 42 20 24 46 55 55 56 38 28 33 16 3 16 36 34 33 25 14 75 72 55 41 30
168 167 171 167 164 156 153 149 145 137 137 141 102 93 87 93 111 108 83 54 56 37 12 26 39 46 68 55 34 38 37 5 357 42 50 57 55 329 9 60 71 53 35
169 167 169 166 166 165 159 156 155 148 143 141 146 163 157 141 129 126 131 113 77 58 22 24 23 42 65 56 31 45 21 32 357 356 29 55 93 87 353 357 45 59 52
172 169 167 166 167 160 158 158 151 142 137 137 138 161 130 136 120 113 124 122 108 90 61 27 26 35 56 63 52 43 27 34 24 5 9 13 17 7 90 339 336 23 43
175 169 163 160 157 147 151 152 142 134 139 155 160 165 145 139 133 138 139 150 142 122 103 65 39 50 54 54 48 50 49 43 25 13 24 33 30 359 25 10 349 18 334
174 168 161 162 154 153 160 157 149 151 161 179 174 167 170 174 168 165 162 174 148 132 120 98 60 57 61 63 43 38 27 48 40 27 18 15 19 16 27 31 358 347 301
172 170 165 161 158 162 168 169 166 167 172 186 182 173 172 175 163 171 172 166 141 137 131 128 121 96 67 66 60 38 13 35 37 38 28 9 17 18 32 46 31 353 340
169 165 162 160 161 167 173 172 170 170 177 187 181 178 167 164 167 184 161 145 146 141 137 148 137 127 106 67 57 40 44 31 18 20 22 28 21 22 19 22 54 82 351
167 162 159 160 163 166 169 168 171 173 176 178 179 165 166 165 161 162 148 142 140 135 141 142 143 145 139 121 76 31 26 49 34 44 31 15 8 22 12 3 4 52 130
160 158 154 157 157 155 160 166 171 170 171 174 172 163 168 168 156 151 152 157 158 154 155 156 152 141 133 133 118 95 31 360 336 5 70 23 17 15 355 354 3 10 60
151 150 148 151 155 157 162 170 172 167 167 165 162 164 164 165 162 166 176 180 177 170 162 149 144 135 123 124 132 161 140 312 328 360 40 8 42 20 349 352 353 348 7
142 144 145 153 155 157 163 171 169 162 158 158 166 170 166 165 169 172 177 179 174 165 156 150 150 150 155 165 162 178 183 220 290 22 19 355 38 7 352 350 345 336 348
143 147 148 152 154 158 165 172 168 159 157 160 169 169 168 164 161 159 156 157 157 153 151 151 156 152 145 120 108 167 183 249 274 140 99 54 53 36 348 344 333 343 343
148 148 150 154 156 162 169 173 170 162 161 164 172 175 169 159 152 149 150 152 165 171 155 151 143 131 124 89 49 353 311 267 262 236 164 148 146 108 80 9 339 352 340
151 152 157 163 169 172 175 176 172 165 160 166 172 168 162 152 152 153 154 158 168 173 145 147 141 139 125 105 91 41 332 320 297 269 235 192 174 172 201 252 283 269 277
148 157 166 170 176 178 173 171 169 163 163 170 168 163 160 159 162 160 159 166 168 172 180 179 159 158 158 151 149 227 299 305 309 299 284 289 173 133 194 280 283 275 265
152 164 172 174 175 168 162 163 161 163 166 167 167 166 165 166 162 162 172 175 166 169 186 181 164 161 174 172 177 239 264 273 277 285 281 273 82 15 348 304 292 269 256
101 109 145 162 165 162 161 159 161 162 163 167 169 169 168 167 165 173 178 172 165 171 183 184 177 175 182 180 178 190 268 269 273 272 320 334 209 331 340 319 303 296 283
79 67 54 82 112 137 146 152 159 159 161 160 161 159 160 161 167 174 171 161 163 177 178 178 184 180 170 172 172 177 257 272 280 277 257 288 253 329 320 285 288 292 289
100 101 80 76 74 85 119 140 149 154 146 138 144 150 151 155 159 160 156 155 158 167 179 182 185 171 159 170 178 187 225 272 288 296 291 273 273 287 291 289 272 273 287
103 105 93 80 77 93 111 114 119 119 122 130 136 140 142 152 149 142 149 154 155 167 182 195 194 179 163 159 195 212 232 270 280 287 293 285 286 284 279 279 285 296 305
104 98 96 89 80 78 96 110 114 115 120 122 126 131 134 130 131 140 147 149 152 164 179 180 194 197 167 172 201 217 239 266 273 289 301 304 295 290 279 270 278 288 289
107 105 109 103 87 83 85 91 98 111 118 124 133 138 138 131 127 127 138 142 159 172 179 186 196 196 162 134 155 220 241 265 279 292 298 297 283 271 270 279 274 255 250
112 115 115 107 101 94 94 91 92 114 124 127 125 125 122 128 118 100 88 123 124 160 169 181 175 173 184 204 174 168 210 240 265 293 286 288 290 277 275 275 270 263 265
107 101 101 105 102 95 92 89 85 106 125 127 129 126 122 122 126 122 92 54 79 102 106 107 131 129 148 157 151 190 253 272 295 305 286 286 291 293 296 302 307 308 302